Location: Bauersach School (historical)
(38.0926°N, 89.4806°W)
Time: 03:24:56
(UTC+00:00)

EXPRESS MD2 - Pass Details

Date: 11 December 2025
Orbit: 257 x 2826 km, 49.8° (Epoch: 21 January)

Event Time Altitude Azimuth Distance (km) Brightness Sun altitude
Rises 23:33:56 0° 236° (SW) 1,858 7.9 -10.7°
Reaches altitude 10° 23:35:34 10° 238° (WSW) 1,118 6.4 -11.0°
Maximum altitude 23:37:52 77° 324° (NW) 349 2.3 -11.5°
Enters shadow 23:39:59 18° 50° (NE) 1,065 4.2 -11.9°
